Regional Weather Roundup
Issued by NWS Charleston, SC

Current Version | Previous Version | Graphics & Text | Print | Product List | Glossary On
Versions: 1 2 3 4 5 6 7 8 9 10 11 12 13 14 15 16 17 18 19 20 21 22 23 24 25 26 27 28 29 30 31 32 33 34 35 36 37 38 39 40 41 42 43 44 45 46 47 48 49 50
000
ASUS42 KCHS 201712
RWRCHS

REGIONAL WEATHER ROUNDUP
NATIONAL WEATHER SERVICE CHARLESTON SC
100 PM EDT SUN AUG 20 2017

NOTE: "FAIR" INDICATES FEW OR NO CLOUDS BELOW 12,000 FEET WITH NO
SIGNIFICANT WEATHER AND/OR OBSTRUCTIONS TO VISIBILITY.

NOT ALL STATIONS ARE QUALITY CONTROLLED. USE DATA WITH CAUTION...
ESPECIALLY DEWPOINT OBSERVATIONS.

SCZ027-030-031-034>040-042>050-201800-
...SOUTHEAST SOUTH CAROLINA...

CITY           SKY/WX    TMP DP  RH WIND       PRES   REMARKS
N CHARLESTON   MOSUNNY   90  78  68 S6        30.07S HX 104
WATERFRONT PRK   N/A     87  79  76 CALM      29.93S HX 101
JOHNS ISLAND   FAIR      91  77  62 NE3       30.08S HX 105
PINOPOLIS        N/A     88  79  74 VRB2      30.01S HX 102
MONCKS CORNER  FAIR      91  66  43 CALM      30.08S HX  94
SUMMERVILLE    FAIR      90  68  48 CALM      30.08F HX  93
BEAUFORT MCAS  SUNNY     93  80  65 VRB5      30.07S HX 112
BEAUFORT ARPT  CLOUDY    90  77  66 S5        30.07S HAZE    HX 102
HILTON HEAD IS MOSUNNY   90  77  66 SE6       30.08S HX 102
WALTERBORO     MOSUNNY   91  70  49 E3        30.08S HX  97
ALLENDALE      NOT AVBL

...SOUTHERN MIDLANDS AND PEE DEE...

CITY           SKY/WX    TMP DP  RH WIND       PRES   REMARKS
GEORGETOWN     FAIR      91  70  49 NE3       30.09S HX  97
KINGSTREE      FAIR      90  72  55 E3        30.08S HX  96
ORANGEBURG     MOSUNNY   93  69  45 VRB3      30.08S HX  98
BARNWELL       FAIR      95  70  43 CALM      30.08S HX 101
AIKEN          FAIR      90  70  51 NE7       30.13R HX  95
MANNING        FAIR      90  72  55 S10       30.08S HX  96
COLUMBIA       PTSUNNY   93  72  50 VRB6      30.07S HX 101
SUMTER         MOSUNNY   94  65  38 E6        30.06S HX  96
FLORENCE       SUNNY     91  69  48 CALM      30.09S HX  96
MYRTLE BEACH   MOSUNNY   90  81  74 MISG      30.09S HX 108
N MYRTLE BEACH SUNNY     87  78  74 SE8       30.09S HX 100

$$

GAZ063-065-086>088-099>101-113>116-118-119-134>141-150-201800-
...SOUTHEAST GEORGIA...

CITY           SKY/WX    TMP DP  RH WIND       PRES   REMARKS
SAVANNAH ARPT  PTSUNNY   93  76  57 E8        30.07S HX 105
HUNTER AAF     LGT RAIN  91  77  64 SE6       30.04F HX 104
FORT STEWART   PTSUNNY   92  76  60 E7        30.04F HX 103
STATESBORO     SUNNY     92  69  45 CALM      30.08S HX  97
SYLVANIA       PTSUNNY   93  75  55 CALM      30.09S HX 105
CLAXTON        FAIR      93  75  55 NE3       30.07S HX 104

...CSRA...CENTRAL AND FAR SOUTHEAST GEORGIA...

CITY           SKY/WX    TMP DP  RH WIND       PRES   REMARKS
THOMSON        SUNNY     90  71  53 SE6       30.14S HX  96
AUGUSTA-BUSH   MOSUNNY   95  68  41 E6        30.07S HX  99
AUGUSTA-DANIEL MOSUNNY   94  68  42 E6        30.09S HX  98
SWAINSBORO     FAIR      90  70  51 NE3       30.09S HX  95
VIDALIA        SUNNY     93  70  46 SW5       30.08S HX  99
EASTMAN        FAIR      94  47  20 SE3       30.10F HX  90
HAZLEHURST     FAIR      95  51  22 CALM      30.06S HX  92
ALMA           SUNNY     95  69  42 S6        30.06F HX 100
WAYCROSS       MOSUNNY   94  65  38 CALM      30.06S HX  96
JESUP          FAIR      93  73  52 E5        30.06S HX 102
BAXLEY         FAIR      90  68  48 CALM      30.06F HX  93
BRUNSWICK      SUNNY     90  72  55 E3        30.07S HX  96
SAINT SIMONS   SUNNY     91  78  65 SE7       30.06S HX 106

$$

SCZ027-028-034-036>038-045-046-048>050-GAZ119-141-201800-
...LAKE AND SUPPLEMENTAL COASTAL OBSERVATIONS...

STATION/POSITION TIME  TEMP    WIND        PRES    WAVE   SWELL
                       AIR SEA DIR/SP/G            HT/PER HT/PER/DIR
                 (UTC) (F)     (DEG/KT/KT) (MB)    (FT/S) (FT/S/D)
WINYAH BAY       1545   87     130/  2     1019.0
LAKE MURRAY      1620   90      80/  3/  5 1017.3
ACE BASIN NERRS  1545   91     120/  1     1018.0
FORT PULASKI     1648   88 87  140/  5/  8 1018.8R
SAPELO ISLAND    1600   91        CALM     1018.0

$$

ANZ835-935-AMZ111-154-330-350-352-354-370-450-454-472-201800-
...C-MAN AND BUOY OBSERVATIONS...

STATION/POSITION TIME  TEMP    WIND        PRES    WAVE   SWELL
                       AIR SEA DIR/SP/G            HT/PER HT/PER/DIR
                 (UTC) (F)     (DEG/KT/KT) (MB)    (FT/S) (FT/S/D)
BUOY 41004       1650   86 85   CALM  /  2 1018.5S   3/ 9   3/140/ 9
BUOY 41008       1650   84 86  180/  4/  6 1018.3R   2/ 9   2/110/ 9
FOLLY BEACH CMAN 1600   88      40/  2/  4 1019.2R
CAPERS NEARSHORE 1608   86 87  100/  4/  8 1018.7R
FRIPP NEARSHORE  1608   86     190/  4/  6 1018.2R


STATION/POSITION TIME  TEMP    WIND        PRES    WAVE   SWELL
                       AIR SEA DIR/SP/G            HT/PER HT/PER/DIR
                 (UTC) (F)     (DEG/KT/KT) (MB)    (FT/S) (FT/S/D)
5E ST. MARYS GA  1630      85                N/A     2/ 9
FRYING PAN BUOY  1650   85 84   90/  2/  4 1018.7F   3/ 9   3/120/ 9
BUOY 41025       1650   80 85  340/  4/  6 1019.1S   3/ 8   2/150/ 8
CAPE LOOKOUT NC  1600   80      80/  1/  2 1018.6F
BUOY 41002       1650   83 85  160/  6/  8 1020.2R   3/ 8   3/100/ 8
BUOY 41010       1650   79 85  310/  4/  6 1019.0F   3/ 8   3/110/ 8
ST AUGUSTINE FL  1700   83 83  120/  8/  8 1018.4F


$$




USA.gov is the U.S. government's official web portal to all federal, state and local government web resources and services.